Location: Guayaquil
(2.1667°S, 79.9000°W)
Time: 14:19:00
(UTC-05:00)

Envisat - Visible Passes

Search period start: 07 August 2020 00:00
Search period end: 17 August 2020 00:00
Orbit: 764 x 766 km, 98.1° (Epoch: 07 August)

Date Brightness Start Highest point End Pass type
(mag) Time Alt. Az. Time Alt. Az. Time Alt. Az.
07 Aug 4.1 05:44:46 10° NNE 05:49:37 47° ESE 05:54:29 10° S visible
08 Aug 5.7 05:09:48 10° ENE 05:12:58 17° ESE 05:16:07 10° SE visible
08 Aug 6.0 19:19:21 10° SW 19:21:34 13° WSW 19:23:47 10° WNW visible
09 Aug 4.7 18:40:17 10° SSW 18:44:56 36° WSW 18:49:33 10° NW visible
10 Aug 4.7 05:33:45 10° NE 05:38:18 34° ESE 05:42:53 10° SSE visible
11 Aug 6.0 04:59:48 10° E 05:01:40 12° ESE 05:03:32 10° SE visible
11 Aug 5.8 19:06:55 10° SW 19:10:17 18° WSW 19:13:37 10° WNW visible
12 Aug 3.3 05:58:37 10° NNE 06:03:40 73° ESE 06:08:44 10° S visible
13 Aug 5.3 05:22:53 10° NE 05:27:00 25° ESE 05:31:08 10° SSE visible
14 Aug 5.5 18:54:55 10° SSW 18:58:58 24° WSW 19:03:00 10° NW visible
15 Aug 3.9 05:47:26 10° NNE 05:52:21 53° ESE 05:57:17 10° S visible
16 Aug 5.7 05:12:13 10° ENE 05:15:42 19° ESE 05:19:11 10° SSE visible
16 Aug 6.1 19:22:47 10° WSW 19:24:18 11° WSW 19:25:49 10° W visible
